Location: Baia Mare
(47.6567°N, 23.5850°E)
Time: 21:13:34
(UTC+03:00)

ISS - Pass Details

Date: 29 May 2018
Orbit: 402 x 406 km, 51.6° (Epoch: 22 June)

Event Time Altitude Azimuth Distance (km) Brightness Sun altitude
Rises 01:12:11 0° 293° (WNW) 2,322 0.4 -20.7°
Reaches altitude 10° 01:14:18 10° 288° (WNW) 1,459 -0.8 -20.7°
Enters shadow 01:15:46 23° 277° (W) 897 -2.0 -20.8°
